Regional Weather Roundup
Issued by NWS

Home | Current Version | Previous Version | Graphics & Text | Print | Product List | Glossary On
Versions: 1 2 3 4 5 6 7 8 9 10 11 12 13 14 15 16 17 18 19 20 21 22 23 24 25 26 27 28 29 30 31 32 33 34 35 36 37 38 39 40 41 42 43 44 45 46 47 48 49 50
000
ASUS45 KBOI 251910
RWRID
WEATHER ROUNDUP FOR IDAHO
NATIONAL WEATHER SERVICE BOISE ID
1200 PM MST TUE NOV 25 2014

NOTE: "FAIR" INDICATES FEW OR NO CLOUDS BELOW 12000 FEET
WITH NO SIGNIFICANT WEATHER AND/OR OBSTRUCTIONS TO VISIBILITY

IDZ012-014-252000-
SOUTHWEST IDAHO


CITY           SKY/WX    TMP DP  RH WIND       PRES   REMARKS
BOISE          CLOUDY    50  41  71 N3        30.25F
CALDWELL       NOT AVBL
MOUNTAIN HOME  CLOUDY    53  43  68 W6        30.25F
$$

IDZ016-017-252000-
SOUTHCENTRAL IDAHO


CITY           SKY/WX    TMP DP  RH WIND       PRES   REMARKS
BURLEY         CLOUDY    50  35  56 W24G35    30.20F
JEROME         CLOUDY    48  35  60 SW17G28   30.23F
TWIN FALLS     CLOUDY    54  36  50 SW29G39   30.23F
$$

IDZ019>023-252000-
SOUTHEAST IDAHO


CITY           SKY/WX    TMP DP  RH WIND       PRES   REMARKS
IDAHO FALLS    CLOUDY    40  32  73 SW28G36   30.10F WCI  29
POCATELLO      CLOUDY    45  36  70 SW31G45   30.19F
REXBURG        CLOUDY    37  31  78 SW22G35   30.09F WCI  26
$$

IDZ006-010-011-018-031-032-252000-
CENTRAL IDAHO MOUNTAINS


CITY           SKY/WX    TMP DP  RH WIND       PRES   REMARKS
MCCALL         LGT RAIN  34  32  92 N5        30.18F WCI  30
HAILEY         PTSUNNY   39  30  70 CALM      30.14F
STANLEY          N/A     36  32  85 SE9       30.18F WCI  29
SALMON         CLOUDY    34  30  86 CALM      30.09F
CHALLIS        LGT RAIN  36  32  85 CALM      30.09F
$$

IDZ002-004-006-007-026-252000-
NORTHERN IDAHO


CITY           SKY/WX    TMP DP  RH WIND       PRES   REMARKS
LEWISTON       LGT RAIN  46  44  93 N6        30.14R FOG
LOWELL           N/A     35  34  96 CALM      30.18S
COEUR D`ALENE  CLOUDY    39  37  93 SW6       30.16S WCI  35
MULLAN PASS    SNOW      29  27  92 N7        30.07R VSB 1/4 WCI  22
$$



USA.gov is the U.S. government's official web portal to all federal, state and local government web resources and services.